Regional Weather Roundup
Issued by NWS

Home | Current Version | Previous Version | Text Only | Print | Product List | Glossary On
Versions: 1 2 3 4 5 6 7 8 9 10 11 12 13 14 15 16 17 18 19 20 21 22 23 24 25 26 27 28 29 30 31 32 33 34 35 36 37 38 39 40 41 42 43 44 45 46 47 48 49 50
000
ASUS43 KDMX 201706
RWRIA

WEATHER ROUNDUP FOR IOWA
NATIONAL WEATHER SERVICE DES MOINES IA
1100 AM CST TUE FEB 20 2018

NOTE: "FAIR" INDICATES FEW OR NO CLOUDS BELOW 12,000 FEET WITH NO
SIGNIFICANT WEATHER AND/OR OBSTRUCTIONS TO VISIBILITY.

* - THESE STATIONS ARE NOT NWS STATIONS...THUS NOT UNDER NWS
QUALITY CONTROL.  THEY ALSO DO NOT REPORT WEATHER SUCH
AS PRECIPITATION OR FOG.

IAZ001>003-012>014-020>022-031>034-043>046-201800-
   NORTHWEST IOWA

CITY           SKY/WX    TMP DP  RH WIND       PRES   REMARKS
CARROLL *      CLOUDY    19  14  79 NW17G28   30.02R WCI   4
CHEROKEE *     LGT SNOW  14  11  87 NW13G20   30.05S WCI   0
DENISON *      FLURRIES  16  12  86 NW21      30.05S WCI  -2
LE MARS *      CLOUDY    10   5  79 NW17G25   30.09R WCI  -7
ORANGE CITY *  CLOUDY    10   7  85 NW17G24   30.04S WCI  -7
SHELDON *      FLURRIES  12   7  79 MISG      30.02S
SIOUX CITY     CLOUDY    11   5  77 NW24      30.09S WCI  -9
SPENCER        FLURRIES  15   9  76 NW20      30.02R WCI  -2
STORM LAKE *   FLURRIES  14  12  92 W22       30.01R WCI  -4
$$

IAZ055>058-069>071-079>083-090>094-201800-
   SOUTHWEST IOWA

CITY           SKY/WX    TMP DP  RH WIND       PRES   REMARKS
ATLANTIC *     CLOUDY    19  16  86 NW18      30.04R WCI   4
AUDUBON *      CLOUDY    19  16  86 NW8       30.04R WCI   9
CLARINDA *     MOSUNNY   21  19  93 NW17G29   30.08R WCI   7
COUNCIL BLFS * CLOUDY    16  14  93 NW20      30.07R WCI  -1
CRESTON *      CLOUDY    23  19  86 NW21      30.01R WCI   8
HARLAN  *      CLOUDY    18  14  86 NW24      30.11R WCI   0
LAMONI         CLOUDY    27  22  81 NW14      29.98R WCI  16
RED OAK *      FLURRIES  21  18  86 NW16G22   30.07R WCI   7
SHENANDOAH *   CLOUDY    21  18  86 NW14G20   30.07F WCI   8
$$

IAZ047>049-059>061-072>074-084-201800-
   CENTRAL IOWA

CITY           SKY/WX    TMP DP  RH WIND       PRES   REMARKS
AMES           CLOUDY    24  19  81 NW20      29.99R WCI  10
ANKENY *       CLOUDY    25  21  86 MISG      30.00R
BOONE *        CLOUDY    21  19  93 MISG      29.98S
CHARITON *     CLOUDY    27  27 100 NW16      29.96S WCI  14
DES MOINES     CLOUDY    25  20  81 NW20      29.99R WCI  11
GRINNELL*      LGT SNOW  28  27  95 NW9       29.97R WCI  19
KNOXVILLE *    CLOUDY    27  25  93 NW16      29.96F WCI  14
MARSHALLTOWN   CLOUDY    25  22  88 NW21      29.95R WCI  11
NEWTON *       PTSUNNY   27  25  93 NW16G24   29.98R WCI  14
PELLA *        MIX PCPN  28  25  89 NW9       29.99S WCI  19
PERRY *        CLOUDY    23  19  87 NW13      30.02R WCI  11
$$

IAZ004>006-015-016-023>025-035-036-201800-
   NORTH CENTRAL IOWA

CITY           SKY/WX    TMP DP  RH WIND       PRES   REMARKS
ALGONA *       CLOUDY    18 N/A N/A NW17      29.98R WCI   2
CLARION *      CLOUDY    21  21 100 NW17      29.98S WCI   7
ESTHERVILLE    CLOUDY    14   9  80 NW22      29.99R WCI  -4
FORT DODGE *   CLOUDY    20  14  77 NW12G22   29.99S WCI   8
MASON CITY     CLOUDY    20  17  88 W17       29.97R WCI   5
FOREST CITY *  CLOUDY    21  19  93 NW12      29.96R WCI   9
WEBSTER CITY * CLOUDY    21  16  79 NW18      29.97S WCI   6
IOWA FALLS *   CLOUDY    23  21  91 W10       29.97F WCI  13
$$

IAZ007>011-017>019-026>030-037>042-050>054-066-201800-
   NORTHEAST IOWA

CITY           SKY/WX    TMP DP  RH WIND       PRES   REMARKS
CEDAR RAPIDS   LGT RAIN  33  32  96 NW15      29.93F FOG     WCI  23
CHARLES CITY * CLOUDY    25  25 100 W16       29.95R WCI  12
CLINTON *      RAIN      35  35 100 W20G26    29.93  FOG     WCI  24
DECORAH *      CLOUDY    28  27  93 NW12G20   29.88R WCI  18
DUBUQUE        HVY RAIN  33  31  92 W17       29.91R FOG     WCI  22
MONTICELLO *   LGT RAIN  34  32  93 MISG      29.91R
OELWEIN *      CLOUDY    28  28 100 W21G26    29.91R WCI  15
WATERLOO       CLOUDY    27  24  89 W15G22    29.93R WCI  15
$$

IAZ064-065-067-068-078-201800-
   EAST CENTRAL IOWA

CITY           SKY/WX    TMP DP  RH WIND       PRES   REMARKS
DAVENPORT      HVY RAIN  36  33  89 W14G24    29.95R VSB 3/4 WCI  27
IOWA CITY      RAIN      35  35 100 W8        29.95R FOG     WCI  29
MT. PLEASANT * RAIN      32  32 100 NW9       29.94F WCI  24
MUSCATINE *    RAIN      36  34  93 NW6       29.93R WCI  31
QUAD CITIES    LGT RAIN  37  35  92 W13       29.92R FOG     WCI  29
$$

IAZ062-063-075>077-085>089-095>099-201800-
   SOUTHEAST IOWA

CITY           SKY/WX    TMP DP  RH WIND       PRES   REMARKS
BURLINGTON     RAIN      34  33  96 CALM      29.91R FOG
FAIRFIELD *    CLOUDY    32  32 100 NW16      29.93R FOG     WCI  21
FORT MADISON * RAIN      34  34 100 NW6       29.94F WCI  29
KEOKUK *       HVY RAIN  34  34 100 VRB5      29.93F WCI  30
OSKALOOSA *    MIX PCPN  30  29  96 NW7       29.95F WCI  23
OTTUMWA        FRZ RAIN  31  28  89 NW20G25   29.93F FOG     WCI  19
WASHINGTON *   LGT RAIN  34  34 100 NW14      29.94F WCI  24
$$

ABBREVIATIONS USED IN REMARKS
   TC - TEMPERATURES IN CELSIUS
  WCI - WIND CHILL INDEX
   HX - HEAT INDEX
  VSB - VISIBILITY
$$




USA.gov is the U.S. government's official web portal to all federal, state and local government web resources and services.